Simultaneous Nadir Overpasses (SNOs) Predictions

Prediction of SNOs between GOES-16 and NOAA-19 Satellite Orbit:

Table of predicted SNOs for the next 14.0 days since TLE Epoch: 3/3/2017
Index Date Time (GOES-16) GOES-16 Lat,Lon NOAA-19 Lat,Lon Distance(km) Time Diff (sec)
1 03/04/2017 08:55:12 0.00, -89.50 -0.43, -87.74 202.39 80
2 03/06/2017 21:16:53 -0.00, -89.51 -0.79, -92.90 386.43 80
3 03/07/2017 21:05:28 0.00, -89.53 -0.16, -90.11 67.86 80
4 03/08/2017 20:56:42 0.00, -89.54 0.48, -87.33 250.96 80
5 03/11/2017 09:18:19 -0.01, -89.60 0.64, -92.49 329.79 80
6 03/12/2017 09:06:53 -0.01, -89.62 0.04, -89.70 10.84 80
7 03/13/2017 08:52:47 -0.01, -89.63 -0.62, -86.92 309.21 80
8 03/15/2017 21:14:31 0.01, -89.66 -0.54, -92.10 277.95 80
9 03/16/2017 21:05:46 0.01, -89.69 0.11, -89.32 41.98 80




NCC Satellite Simultaneous Nadir Overpasses (SNOs) Prediction Service
